Date String (YYYY-MM-DD hh:mm:ss) UTC,Instrument flags,Ambient pressure (hPa),Sample flow (lpm),Bypass flow (lpm),Sample temperature (°C),Ambient temperature (°C),ASC tube jacket temperature (°C),LED temperature (°C),Box temperature (°C),Sample RH (%),Span deviation,Mass concentration (μg/m³),Mass concentration (μg/m³),Mass concentration (μg/m³)
DateTimeUTC,F1_M11,P_M11,Q1_M11,Q2_M11,T1_M11,T2_M11,T3_M11,T4_M11,T5_M11,U1_M11,ZSPAN_M11,X0_M11,X2_M11,X1_M11
2022-10-03 08:00:00,,0829.0,5.00,0.00,29.9,28.2,00.0,38.7,31.6,22.7,0000.0,0008.55,0003.74,0003.35
2022-10-03 08:01:00,,0829.0,4.99,0.00,29.9,28.2,00.0,38.7,31.6,22.8,0000.0,0008.63,0003.80,0003.41
2022-10-03 08:02:00,,0829.0,5.01,0.00,29.9,28.2,00.0,38.7,31.6,22.8,0000.0,0008.69,0003.83,0003.47
2022-10-03 08:03:00,,0829.1,5.00,0.00,29.9,28.2,00.0,38.7,31.6,22.8,0000.0,0008.67,0003.85,0003.54
2022-10-03 08:04:00,,0829.0,5.00,0.00,29.8,28.2,00.0,38.7,31.6,22.8,0000.0,0008.68,0003.89,0003.58
2022-10-03 08:05:00,,0829.1,4.99,0.00,29.8,28.2,00.0,38.7,31.6,22.9,0000.0,0008.45,0003.93,0003.61
2022-10-03 08:06:00,,0829.0,5.01,0.00,29.8,28.3,00.0,38.7,31.7,22.9,0000.0,0007.90,0003.96,0003.64
2022-10-03 08:07:00,,0829.1,4.98,0.00,29.8,28.2,00.0,38.7,31.6,22.9,0000.0,0007.88,0003.96,0003.66
2022-10-03 08:08:00,,0829.1,5.01,0.00,29.8,28.2,00.0,38.7,31.6,22.9,0000.0,0007.65,0003.96,0003.68
2022-10-03 08:09:00,,0829.1,5.00,0.00,29.8,28.2,00.0,38.7,31.6,23.0,0000.0,0007.41,0003.95,0003.68
2022-10-03 08:10:00,,0829.1,5.00,0.00,29.8,28.1,00.0,38.7,31.6,23.0,0000.0,0007.06,0003.93,0003.69
2022-10-03 08:11:00,,0829.1,5.00,0.00,29.8,28.1,00.0,38.6,31.6,23.1,0000.0,0006.29,0003.93,0003.68
2022-10-03 08:12:00,,0829.1,5.01,0.00,29.8,28.0,00.0,38.6,31.5,23.1,0000.0,0006.29,0003.94,0003.68
2022-10-03 08:13:00,,0829.2,5.01,0.00,29.8,28.0,00.0,38.6,31.5,23.1,0000.0,0006.37,0003.97,0003.68
2022-10-03 08:14:00,,0829.1,4.99,0.00,29.7,28.0,00.0,38.6,31.5,23.1,0000.0,0006.83,0003.97,0003.68
2022-10-03 08:15:00,,0829.1,5.01,0.00,29.7,28.0,00.0,38.6,31.5,23.2,0000.0,0007.03,0003.98,0003.69
2022-10-03 08:16:00,,0829.1,5.00,0.00,29.7,28.0,00.0,38.6,31.5,23.2,0000.0,0007.12,0004.00,0003.71
2022-10-03 08:17:00,,0829.1,4.99,0.00,29.7,28.0,00.0,38.6,31.5,23.2,0000.0,0007.18,0004.00,0003.72
2022-10-03 08:18:00,,0829.1,5.00,0.00,29.7,28.0,00.0,38.6,31.5,23.3,0000.0,0007.35,0004.03,0003.72
2022-10-03 08:19:00,,0829.0,5.01,0.00,29.7,28.0,00.0,38.6,31.5,23.4,0000.0,0007.36,0004.03,0003.73
2022-10-03 08:20:00,,0829.1,4.99,0.00,29.7,28.1,00.0,38.6,31.5,23.4,0000.0,0007.36,0004.04,0003.74
2022-10-03 08:21:00,,0829.1,5.01,0.00,29.7,28.1,00.0,38.6,31.5,23.6,0000.0,0007.37,0004.07,0003.74
2022-10-03 08:22:00,,0829.1,5.01,0.00,29.7,28.2,00.0,38.5,31.5,23.6,0000.0,0007.10,0004.04,0003.74
2022-10-03 08:23:00,,0829.1,4.98,0.00,29.7,28.2,00.0,38.5,31.5,23.6,0000.0,0006.92,0004.01,0003.73
2022-10-03 08:24:00,,0829.1,5.01,0.00,29.7,28.2,00.0,38.5,31.5,23.5,0000.0,0006.64,0003.96,0003.70
2022-10-03 08:25:00,,0829.1,5.00,0.00,29.7,28.2,00.0,38.5,31.5,23.4,0000.0,0006.18,0003.94,0003.68
2022-10-03 08:26:00,,0829.1,4.99,0.00,29.7,28.2,00.0,38.5,31.5,23.3,0000.0,0005.82,0003.89,0003.64
2022-10-03 08:27:00,,0829.1,5.01,0.00,29.7,28.2,00.0,38.5,31.5,23.3,0000.0,0005.76,0003.83,0003.60
2022-10-03 08:28:00,,0829.1,5.01,0.00,29.7,28.2,00.0,38.5,31.6,23.2,0000.0,0005.73,0003.79,0003.57
2022-10-03 08:29:00,,0829.1,4.99,0.00,29.7,28.3,00.0,38.5,31.6,23.1,0000.0,0005.60,0003.76,0003.55
2022-10-03 08:30:00,,0829.1,4.99,0.00,29.8,28.3,00.0,38.5,31.6,23.1,0000.0,0005.69,0003.75,0003.52
2022-10-03 08:31:00,,0829.0,5.01,0.00,29.8,28.4,00.0,38.5,31.6,23.2,0000.0,0005.84,0003.77,0003.50
2022-10-03 08:32:00,,0829.0,4.99,0.00,29.8,28.4,00.0,38.5,31.6,23.2,0000.0,0005.89,0003.76,0003.48
2022-10-03 08:33:00,,0829.0,5.01,0.00,29.8,28.4,00.0,38.5,31.6,23.1,0000.0,0005.92,0003.76,0003.47
2022-10-03 08:34:00,,0829.0,4.99,0.00,29.8,28.4,00.0,38.6,31.7,23.1,0000.0,0006.32,0003.75,0003.46
2022-10-03 08:35:00,,0829.0,4.99,0.00,29.8,28.4,00.0,38.6,31.7,23.0,0000.0,0007.50,0003.76,0003.45
2022-10-03 08:36:00,,0829.0,5.01,0.00,29.8,28.4,00.0,38.6,31.7,22.9,0000.0,0007.67,0003.75,0003.44
2022-10-03 08:37:00,,0829.0,5.01,0.00,29.8,28.4,00.0,38.6,31.7,22.9,0000.0,0007.91,0003.76,0003.43
2022-10-03 08:38:00,,0829.0,4.99,0.00,29.8,28.4,00.0,38.6,31.7,23.0,0000.0,0007.86,0003.74,0003.42
2022-10-03 08:39:00,,0829.1,5.01,0.00,29.8,28.4,00.0,38.6,31.7,23.0,0000.0,0007.77,0003.73,0003.42
2022-10-03 08:40:00,,0829.0,4.99,0.00,29.8,28.4,00.0,38.6,31.7,23.0,0000.0,0008.00,0003.71,0003.42
2022-10-03 08:41:00,,0829.1,5.00,0.00,29.8,28.3,00.0,38.6,31.7,23.0,0000.0,0008.31,0003.70,0003.43
2022-10-03 08:42:00,,0829.1,5.00,0.00,29.8,28.3,00.0,38.6,31.7,23.0,0000.0,0008.36,0003.70,0003.44
2022-10-03 08:43:00,,0829.1,4.99,0.00,29.8,28.3,00.0,38.6,31.7,23.0,0000.0,0008.29,0003.67,0003.45
2022-10-03 08:44:00,,0829.1,5.01,0.00,29.8,28.4,00.0,38.6,31.7,23.0,0000.0,0008.25,0003.66,0003.45
2022-10-03 08:45:00,,0829.1,5.00,0.00,29.8,28.4,00.0,38.6,31.7,23.0,0000.0,0008.19,0003.68,0003.47
2022-10-03 08:46:00,,0829.1,4.98,0.00,29.8,28.4,00.0,38.6,31.7,23.0,0000.0,0007.37,0003.69,0003.48
2022-10-03 08:47:00,,0829.1,5.01,0.00,29.8,28.4,00.0,38.6,31.7,23.0,0000.0,0007.20,0003.71,0003.50
2022-10-03 08:48:00,,0829.1,5.00,0.00,29.8,28.4,00.0,38.6,31.7,23.0,0000.0,0006.96,0003.73,0003.52
2022-10-03 08:49:00,,0829.1,4.99,0.00,29.8,28.4,00.0,38.6,31.7,22.9,0000.0,0007.20,0003.78,0003.54
2022-10-03 08:50:00,,0829.1,5.01,0.00,29.9,28.4,00.0,38.6,31.7,22.9,0000.0,0007.39,0003.85,0003.56
2022-10-03 08:51:00,,0829.1,4.98,0.00,29.9,28.4,00.0,38.6,31.7,22.9,0000.0,0007.11,0003.86,0003.57
2022-10-03 08:52:00,,0829.1,5.01,0.00,29.9,28.4,00.0,38.6,31.7,22.9,0000.0,0007.02,0003.87,0003.57
2022-10-03 08:53:00,,0829.1,5.01,0.00,29.9,28.4,00.0,38.6,31.7,22.9,0000.0,0006.81,0003.87,0003.58
2022-10-03 08:54:00,,0829.1,4.99,0.00,29.8,28.4,00.0,38.6,31.7,22.9,0000.0,0006.83,0003.89,0003.59
2022-10-03 08:55:00,,0829.1,5.00,0.00,29.9,28.4,00.0,38.6,31.7,22.9,0000.0,0007.41,0003.91,0003.60
2022-10-03 08:56:00,,0829.2,5.01,0.00,29.9,28.4,00.0,38.6,31.7,22.8,0000.0,0007.41,0003.90,0003.60
2022-10-03 08:57:00,,0829.2,5.00,0.00,29.9,28.4,00.0,38.6,31.7,22.8,0000.0,0007.42,0003.91,0003.60
2022-10-03 08:58:00,,0829.3,5.00,0.00,29.9,28.4,00.0,38.6,31.7,22.9,0000.0,0007.63,0003.92,0003.61
2022-10-03 08:59:00,,0829.2,5.00,0.00,29.9,28.4,00.0,38.6,31.7,22.9,0000.0,0007.59,0003.93,0003.63
